ICE2406 BIKF-EBLG

Flight info

Callsign ICE2406
Flight time 2h 36m
Altitude 35000
Route OSKUM3C OSKUM DCT RATSU DCT BARKU DCT GODOS DCT AMGOD DCT ALFEN DCT ORCAV Z310 WOODY N872 NIK
Aircraft B763/H-SDE2E3FGHIJ3J4J7RWXYZ/LB1D1

Departure

Time 2026-04-27 09:46
Airport Keflavik International Airport (BIKF)

Arrival

Time 2026-04-27 12:23
Airport Liège Airport (EBLG)
Time Latitude Longitude Altitude Speed Heading
2026-04-27 09:25 63.99332 -22.62917 143 ft 0 kts 269°
2026-04-27 09:39 63.99332 -22.62916 142 ft 1 kts 269°
2026-04-27 09:40 63.99332 -22.62883 143 ft 2 kts 269°
2026-04-27 09:40 63.99332 -22.62849 144 ft 2 kts 270°
2026-04-27 09:40 63.99332 -22.62815 144 ft 2 kts 270°
2026-04-27 09:40 63.99331 -22.62793 144 ft 2 kts 265°
2026-04-27 09:41 63.99337 -22.62762 144 ft 2 kts 214°
2026-04-27 09:41 63.99349 -22.62750 144 ft 0 kts 185°
2026-04-27 09:41 63.99355 -22.62750 144 ft 1 kts 181°
2026-04-27 09:41 63.99356 -22.62750 144 ft 0 kts 181°
2026-04-27 09:43 63.99355 -22.62750 144 ft 1 kts 181°
2026-04-27 09:43 63.99321 -22.62752 144 ft 8 kts 181°
2026-04-27 09:43 63.99247 -22.62709 144 ft 12 kts 154°
2026-04-27 09:43 63.99176 -22.62617 144 ft 9 kts 104°
2026-04-27 09:44 63.99173 -22.62445 146 ft 12 kts 90°
2026-04-27 09:44 63.99171 -22.62223 147 ft 16 kts 90°
2026-04-27 09:44 63.99171 -22.61934 148 ft 20 kts 90°
2026-04-27 09:44 63.99173 -22.61576 150 ft 24 kts 89°
2026-04-27 09:45 63.99171 -22.61177 154 ft 25 kts 89°
2026-04-27 09:45 63.99173 -22.60802 158 ft 22 kts 90°
2026-04-27 09:45 63.99137 -22.60575 162 ft 11 kts 152°
2026-04-27 09:45 63.99040 -22.60552 165 ft 28 kts 180°
2026-04-27 09:46 63.98650 -22.60552 173 ft 82 kts 180°
2026-04-27 09:46 63.97915 -22.60550 172 ft 130 kts 179°
2026-04-27 09:46 63.96855 -22.60545 248 ft 166 kts 179°
2026-04-27 09:46 63.95727 -22.60510 982 ft 162 kts 173°
2026-04-27 09:47 63.94721 -22.59396 1465 ft 175 kts 131°
2026-04-27 09:47 63.94135 -22.56858 1914 ft 190 kts 116°
2026-04-27 09:47 63.93587 -22.53999 2395 ft 203 kts 117°
2026-04-27 09:47 63.93003 -22.50942 2753 ft 225 kts 116°
2026-04-27 09:48 63.92371 -22.47548 3337 ft 240 kts 116°
2026-04-27 09:48 63.91727 -22.44051 4074 ft 248 kts 115°
2026-04-27 09:48 63.91046 -22.40342 4777 ft 260 kts 115°
2026-04-27 09:48 63.90371 -22.36643 5780 ft 258 kts 117°
2026-04-27 09:49 63.89647 -22.32722 6061 ft 281 kts 118°
2026-04-27 09:49 63.88923 -22.28744 7255 ft 273 kts 119°
2026-04-27 09:49 63.88186 -22.24737 8030 ft 280 kts 120°
2026-04-27 09:49 63.87439 -22.20689 8824 ft 286 kts 120°
2026-04-27 09:50 63.86661 -22.16472 9580 ft 293 kts 121°
2026-04-27 09:50 63.85877 -22.12235 10332 ft 299 kts 121°
2026-04-27 09:50 63.85064 -22.07851 11044 ft 305 kts 121°
2026-04-27 09:50 63.84244 -22.03429 11815 ft 310 kts 121°
2026-04-27 09:51 63.83631 -21.98668 12520 ft 326 kts 106°
2026-04-27 09:51 63.83349 -21.93539 13124 ft 336 kts 104°
2026-04-27 09:51 63.83042 -21.88203 13481 ft 353 kts 104°
2026-04-27 09:51 63.82721 -21.82533 13816 ft 372 kts 104°
2026-04-27 09:52 63.82383 -21.76596 14165 ft 391 kts 103°
2026-04-27 09:52 63.82035 -21.70403 14708 ft 403 kts 103°
2026-04-27 09:52 63.81676 -21.64087 15531 ft 406 kts 104°
2026-04-27 09:52 63.81315 -21.57756 16169 ft 413 kts 103°
2026-04-27 09:53 63.80945 -21.51311 16932 ft 417 kts 103°
2026-04-27 09:53 63.80558 -21.44794 17558 ft 424 kts 103°
2026-04-27 09:53 63.80178 -21.38180 18373 ft 425 kts 103°
2026-04-27 09:53 63.79779 -21.31521 19028 ft 430 kts 103°
2026-04-27 09:54 63.79377 -21.24840 19756 ft 433 kts 103°
2026-04-27 09:54 63.78974 -21.18124 20374 ft 438 kts 104°
2026-04-27 09:54 63.78556 -21.11264 21009 ft 443 kts 103°
2026-04-27 09:54 63.78141 -21.04438 21742 ft 443 kts 104°
2026-04-27 09:55 63.77602 -20.97584 22261 ft 445 kts 110°
2026-04-27 09:55 63.76777 -20.90845 22689 ft 452 kts 112°
2026-04-27 09:55 63.75105 -20.76782 23476 ft 471 kts 110°
2026-04-27 09:56 63.74261 -20.69678 24046 ft 476 kts 110°
2026-04-27 09:56 63.73397 -20.62423 24699 ft 479 kts 110°
2026-04-27 09:56 63.72527 -20.55196 25138 ft 486 kts 110°
2026-04-27 09:56 63.71636 -20.47787 25740 ft 488 kts 112°
2026-04-27 09:57 63.70485 -20.40666 26217 ft 487 kts 120°
2026-04-27 09:57 63.69085 -20.33804 26785 ft 490 kts 121°
2026-04-27 09:57 63.67668 -20.26827 27346 ft 493 kts 121°
2026-04-27 09:57 63.66216 -20.19717 27869 ft 498 kts 121°
2026-04-27 09:58 63.64767 -20.12631 28364 ft 502 kts 121°
2026-04-27 09:58 63.63310 -20.05559 28775 ft 507 kts 121°
2026-04-27 09:58 63.61828 -19.98367 29372 ft 508 kts 121°
2026-04-27 09:58 63.60325 -19.91112 29691 ft 515 kts 121°
2026-04-27 09:59 63.58815 -19.83847 30189 ft 516 kts 121°
2026-04-27 09:59 63.57310 -19.76626 30798 ft 515 kts 121°
2026-04-27 09:59 63.55783 -19.69319 31369 ft 516 kts 121°
2026-04-27 09:59 63.54267 -19.62106 31818 ft 518 kts 121°
2026-04-27 10:00 63.52727 -19.54791 32383 ft 517 kts 121°
2026-04-27 10:00 63.51206 -19.47603 32889 ft 517 kts 121°
2026-04-27 10:00 63.49675 -19.40389 33349 ft 517 kts 121°
2026-04-27 10:00 63.48130 -19.33129 33848 ft 517 kts 122°
2026-04-27 10:01 63.46585 -19.25899 34307 ft 517 kts 122°
2026-04-27 10:01 63.45029 -19.18639 34720 ft 516 kts 121°
2026-04-27 10:01 63.43484 -19.11466 35040 ft 518 kts 122°
2026-04-27 10:01 63.41917 -19.04204 35513 ft 516 kts 121°
2026-04-27 10:02 63.40366 -18.97047 35887 ft 515 kts 121°
2026-04-27 10:02 63.38826 -18.89964 36165 ft 517 kts 121°
2026-04-27 10:02 63.37252 -18.82743 36536 ft 516 kts 121°
2026-04-27 10:02 63.35697 -18.75639 36793 ft 517 kts 121°
2026-04-27 10:03 63.34119 -18.68441 36995 ft 515 kts 121°
2026-04-27 10:03 63.32567 -18.61385 36950 ft 515 kts 121°
2026-04-27 10:03 63.29423 -18.47176 36969 ft 511 kts 121°
2026-04-27 10:04 63.26277 -18.33062 36981 ft 512 kts 122°
2026-04-27 10:04 63.23120 -18.18990 36989 ft 512 kts 121°
2026-04-27 10:05 63.19944 -18.04932 37003 ft 512 kts 122°
2026-04-27 10:05 63.16762 -17.90938 37004 ft 513 kts 121°
2026-04-27 10:06 63.13558 -17.76936 37011 ft 513 kts 121°
2026-04-27 10:06 63.10339 -17.62960 37009 ft 514 kts 121°
2026-04-27 10:07 63.07093 -17.48956 37021 ft 514 kts 121°
2026-04-27 10:07 63.03826 -17.34961 37030 ft 516 kts 122°
2026-04-27 10:08 63.00541 -17.20965 37033 ft 514 kts 122°
2026-04-27 10:08 62.97267 -17.07110 37024 ft 514 kts 122°
2026-04-27 10:09 62.93959 -16.93206 37039 ft 515 kts 122°
2026-04-27 10:09 62.90650 -16.79384 37030 ft 516 kts 121°
2026-04-27 10:10 62.87307 -16.65505 37044 ft 516 kts 121°
2026-04-27 10:10 62.83959 -16.51697 37069 ft 516 kts 121°
2026-04-27 10:11 62.80587 -16.37878 37068 ft 518 kts 121°
2026-04-27 10:11 62.77226 -16.24184 37060 ft 511 kts 122°
2026-04-27 10:12 62.73856 -16.10545 37076 ft 514 kts 122°
2026-04-27 10:12 62.70449 -15.96846 37078 ft 519 kts 122°
2026-04-27 10:13 62.66997 -15.83046 37083 ft 518 kts 122°
2026-04-27 10:13 62.63555 -15.69372 37088 ft 519 kts 121°
2026-04-27 10:14 62.60102 -15.55740 37091 ft 520 kts 121°
2026-04-27 10:14 62.56608 -15.42024 37100 ft 519 kts 121°
2026-04-27 10:15 62.53127 -15.28442 37098 ft 519 kts 122°
2026-04-27 10:15 62.49614 -15.14831 37100 ft 519 kts 122°
2026-04-27 10:16 62.46097 -15.01282 37113 ft 520 kts 122°
2026-04-27 10:16 62.42569 -14.87769 37125 ft 520 kts 122°
2026-04-27 10:17 62.39028 -14.74289 37130 ft 519 kts 121°
2026-04-27 10:17 62.35456 -14.60778 37133 ft 521 kts 121°
2026-04-27 10:18 62.31887 -14.47353 37147 ft 521 kts 121°
2026-04-27 10:18 62.28281 -14.33871 37151 ft 520 kts 122°
2026-04-27 10:19 62.24697 -14.20554 37151 ft 521 kts 122°
2026-04-27 10:19 62.21054 -14.07102 37155 ft 521 kts 122°
2026-04-27 10:20 62.17417 -13.93746 37162 ft 522 kts 122°
2026-04-27 10:20 62.13786 -13.80490 37159 ft 522 kts 122°
2026-04-27 10:21 62.10125 -13.67203 37166 ft 521 kts 122°
2026-04-27 10:21 62.06443 -13.53923 37183 ft 520 kts 122°
2026-04-27 10:22 62.02764 -13.40729 37183 ft 521 kts 121°
2026-04-27 10:22 61.99070 -13.27561 37184 ft 520 kts 122°
2026-04-27 10:23 61.95373 -13.14453 37193 ft 520 kts 122°
2026-04-27 10:23 61.91653 -13.01342 37193 ft 519 kts 121°
2026-04-27 10:24 61.87919 -12.88256 37201 ft 521 kts 121°
2026-04-27 10:24 61.84177 -12.75223 37213 ft 521 kts 121°
2026-04-27 10:25 61.80434 -12.62254 37215 ft 519 kts 121°
2026-04-27 10:25 61.76681 -12.49327 37219 ft 519 kts 121°
2026-04-27 10:26 61.72905 -12.36393 37219 ft 520 kts 121°
2026-04-27 10:26 61.69095 -12.23418 37217 ft 519 kts 122°
2026-04-27 10:27 61.65316 -12.10620 37218 ft 519 kts 121°
2026-04-27 10:27 61.61522 -11.97844 37225 ft 519 kts 122°
2026-04-27 10:28 61.57689 -11.85010 37235 ft 519 kts 121°
2026-04-27 10:28 61.53883 -11.72334 37241 ft 519 kts 121°
2026-04-27 10:29 61.50034 -11.59586 37236 ft 519 kts 121°
2026-04-27 10:29 61.46186 -11.46914 37245 ft 518 kts 121°
2026-04-27 10:30 61.42318 -11.34248 37257 ft 518 kts 122°
2026-04-27 10:30 61.38447 -11.21639 37261 ft 519 kts 122°
2026-04-27 10:31 61.34555 -11.09028 37260 ft 519 kts 122°
2026-04-27 10:31 61.30656 -10.96469 37269 ft 518 kts 122°
2026-04-27 10:32 61.26759 -10.83983 37275 ft 518 kts 122°
2026-04-27 10:32 61.22841 -10.71495 37273 ft 517 kts 121°
2026-04-27 10:33 61.18914 -10.59049 37272 ft 518 kts 121°
2026-04-27 10:33 61.14989 -10.46677 37278 ft 520 kts 121°
2026-04-27 10:34 61.11006 -10.34184 37284 ft 520 kts 122°
2026-04-27 10:34 61.07036 -10.21803 37279 ft 519 kts 122°
2026-04-27 10:35 61.03030 -10.09527 37282 ft 522 kts 126°
2026-04-27 10:35 60.98054 -9.98743 37279 ft 523 kts 138°
2026-04-27 10:36 60.92471 -9.89229 37287 ft 522 kts 141°
2026-04-27 10:36 60.86729 -9.80203 37277 ft 524 kts 143°
2026-04-27 10:37 60.80883 -9.71314 37279 ft 523 kts 143°
2026-04-27 10:37 60.75030 -9.62545 37279 ft 523 kts 143°
2026-04-27 10:38 60.69168 -9.53832 37289 ft 524 kts 143°
2026-04-27 10:38 60.63306 -9.45171 37297 ft 524 kts 143°
2026-04-27 10:39 60.58033 -9.35087 37321 ft 522 kts 128°
2026-04-27 10:39 60.53285 -9.24057 37303 ft 522 kts 129°
2026-04-27 10:40 60.48522 -9.12988 37307 ft 523 kts 129°
2026-04-27 10:40 60.43742 -9.01907 37309 ft 522 kts 129°
2026-04-27 10:41 60.38966 -8.90881 37307 ft 523 kts 129°
2026-04-27 10:41 60.34183 -8.79886 37309 ft 523 kts 128°
2026-04-27 10:42 60.29412 -8.68971 37312 ft 524 kts 129°
2026-04-27 10:42 60.24591 -8.57994 37314 ft 523 kts 129°
2026-04-27 10:43 60.19789 -8.47114 37318 ft 521 kts 128°
2026-04-27 10:43 60.14984 -8.36276 37324 ft 524 kts 128°
2026-04-27 10:44 60.10147 -8.25421 37320 ft 524 kts 129°
2026-04-27 10:44 60.05299 -8.14592 37325 ft 525 kts 129°
2026-04-27 10:45 60.00436 -8.03782 37323 ft 524 kts 129°
2026-04-27 10:45 59.95578 -7.93032 37318 ft 523 kts 129°
2026-04-27 10:46 59.90704 -7.82299 37331 ft 525 kts 129°
2026-04-27 10:46 59.85795 -7.71542 37322 ft 524 kts 129°
2026-04-27 10:47 59.80923 -7.60909 37317 ft 524 kts 129°
2026-04-27 10:47 59.76002 -7.50228 37313 ft 523 kts 128°
2026-04-27 10:48 59.71117 -7.39671 37321 ft 525 kts 128°
2026-04-27 10:48 59.66207 -7.29108 37308 ft 524 kts 129°
2026-04-27 10:49 59.61279 -7.18556 37311 ft 524 kts 129°
2026-04-27 10:49 59.56338 -7.08029 37302 ft 525 kts 129°
2026-04-27 10:50 59.51390 -6.97529 37317 ft 526 kts 129°
2026-04-27 10:50 59.46437 -6.87077 37305 ft 524 kts 129°
2026-04-27 10:51 59.41495 -6.76690 37319 ft 524 kts 129°
2026-04-27 10:51 59.36523 -6.66286 37330 ft 524 kts 128°
2026-04-27 10:52 59.31552 -6.55936 37330 ft 522 kts 129°
2026-04-27 10:52 59.26590 -6.45649 37326 ft 522 kts 129°
2026-04-27 10:53 59.19138 -6.30283 37330 ft 524 kts 129°
2026-04-27 10:54 59.14128 -6.20017 37324 ft 523 kts 129°
2026-04-27 10:54 59.09153 -6.09866 37330 ft 521 kts 129°
2026-04-27 10:55 59.04149 -5.99701 37333 ft 522 kts 129°
2026-04-27 10:55 58.99141 -5.89576 37341 ft 520 kts 129°
2026-04-27 10:56 58.94160 -5.79549 37339 ft 517 kts 129°
2026-04-27 10:56 58.89176 -5.69556 37348 ft 519 kts 129°
2026-04-27 10:57 58.84127 -5.59484 37318 ft 518 kts 129°
2026-04-27 10:57 58.79134 -5.49564 37304 ft 517 kts 129°
2026-04-27 10:58 58.74129 -5.39665 37325 ft 519 kts 129°
2026-04-27 10:58 58.69108 -5.29779 37306 ft 515 kts 130°
2026-04-27 10:59 58.64101 -5.19963 37311 ft 518 kts 130°
2026-04-27 10:59 58.59106 -5.10214 37317 ft 517 kts 130°
2026-04-27 11:00 58.51545 -4.95536 37302 ft 515 kts 130°
2026-04-27 11:00 58.46541 -4.85871 37311 ft 514 kts 130°
2026-04-27 11:01 58.41538 -4.76254 37322 ft 513 kts 130°
2026-04-27 11:01 58.36538 -4.66679 37312 ft 512 kts 130°
2026-04-27 11:02 58.31508 -4.57095 37322 ft 512 kts 130°
2026-04-27 11:02 58.26491 -4.47567 37310 ft 512 kts 130°
2026-04-27 11:03 58.21491 -4.38117 37309 ft 510 kts 130°
2026-04-27 11:03 58.16454 -4.28637 37312 ft 511 kts 131°
2026-04-27 11:04 58.11434 -4.19228 37306 ft 512 kts 131°
2026-04-27 11:04 58.06408 -4.09849 37317 ft 507 kts 131°
2026-04-27 11:05 58.01390 -4.00521 37307 ft 508 kts 131°
2026-04-27 11:05 57.96374 -3.91235 37316 ft 508 kts 132°
2026-04-27 11:06 57.91364 -3.81999 37318 ft 507 kts 132°
2026-04-27 11:06 57.86296 -3.72696 37315 ft 508 kts 132°
2026-04-27 11:07 57.81255 -3.63481 37329 ft 509 kts 131°
2026-04-27 11:07 57.76241 -3.54351 37318 ft 507 kts 132°
2026-04-27 11:08 57.71127 -3.45084 37320 ft 508 kts 132°
2026-04-27 11:08 57.66093 -3.35992 37311 ft 506 kts 132°
2026-04-27 11:09 57.61024 -3.26875 37300 ft 506 kts 133°
2026-04-27 11:09 57.55959 -3.17802 37319 ft 507 kts 133°
2026-04-27 11:10 57.50885 -3.08754 37310 ft 506 kts 133°
2026-04-27 11:10 57.45826 -2.99762 37295 ft 507 kts 134°
2026-04-27 11:11 57.40734 -2.90755 37301 ft 507 kts 134°
2026-04-27 11:11 57.35637 -2.81775 37298 ft 505 kts 133°
2026-04-27 11:12 57.30582 -2.72900 37320 ft 504 kts 134°
2026-04-27 11:12 57.25501 -2.64019 37314 ft 504 kts 134°
2026-04-27 11:13 57.20412 -2.55155 37320 ft 505 kts 134°
2026-04-27 11:13 57.15325 -2.46333 37440 ft 504 kts 134°
2026-04-27 11:14 57.12783 -2.41938 37337 ft 505 kts 134°
2026-04-27 11:14 57.10220 -2.37515 37354 ft 502 kts 134°
2026-04-27 11:14 57.05149 -2.28787 37335 ft 502 kts 135°
2026-04-27 11:15 57.00019 -2.19995 37336 ft 505 kts 135°
2026-04-27 11:15 56.94931 -2.11311 37340 ft 504 kts 135°
2026-04-27 11:16 56.89816 -2.02612 37346 ft 502 kts 135°
2026-04-27 11:16 56.84700 -1.93949 37338 ft 502 kts 135°
2026-04-27 11:17 56.79599 -1.85340 37317 ft 503 kts 135°
2026-04-27 11:17 56.74453 -1.76691 37305 ft 504 kts 135°
2026-04-27 11:18 56.69339 -1.68130 37307 ft 502 kts 135°
2026-04-27 11:18 56.64207 -1.59571 37316 ft 503 kts 135°
2026-04-27 11:19 56.59069 -1.51035 37308 ft 502 kts 135°
2026-04-27 11:19 56.53929 -1.42530 37303 ft 501 kts 135°
2026-04-27 11:20 56.48786 -1.34051 37315 ft 502 kts 136°
2026-04-27 11:20 56.43646 -1.25610 37314 ft 503 kts 136°
2026-04-27 11:21 56.38489 -1.17173 37310 ft 502 kts 136°
2026-04-27 11:21 56.33347 -1.08793 37323 ft 500 kts 136°
2026-04-27 11:22 56.28180 -1.00403 37310 ft 501 kts 137°
2026-04-27 11:22 56.23021 -0.92058 37311 ft 500 kts 137°
2026-04-27 11:23 56.17843 -0.83716 37310 ft 500 kts 137°
2026-04-27 11:23 56.12697 -0.75456 37302 ft 501 kts 137°
2026-04-27 11:24 56.07501 -0.67146 37308 ft 500 kts 137°
2026-04-27 11:24 56.02324 -0.58897 37302 ft 500 kts 137°
2026-04-27 11:25 55.97161 -0.50701 37308 ft 500 kts 137°
2026-04-27 11:25 55.91954 -0.42468 37294 ft 500 kts 137°
2026-04-27 11:26 55.86766 -0.34294 37283 ft 500 kts 138°
2026-04-27 11:26 55.81542 -0.26094 37296 ft 500 kts 138°
2026-04-27 11:27 55.76360 -0.17990 37287 ft 499 kts 138°
2026-04-27 11:27 55.71162 -0.09892 37273 ft 498 kts 138°
2026-04-27 11:28 55.65960 -0.01817 37277 ft 499 kts 138°
2026-04-27 11:28 55.60738 0.06261 37267 ft 498 kts 138°
2026-04-27 11:29 55.55553 0.14250 37271 ft 499 kts 138°
2026-04-27 11:29 55.50336 0.22261 37259 ft 500 kts 139°
2026-04-27 11:30 55.45111 0.30254 37269 ft 499 kts 139°
2026-04-27 11:30 55.39882 0.38223 37259 ft 499 kts 139°
2026-04-27 11:31 55.34652 0.46166 37270 ft 499 kts 139°
2026-04-27 11:31 55.29402 0.54110 37266 ft 498 kts 139°
2026-04-27 11:32 55.24155 0.62022 37262 ft 499 kts 139°
2026-04-27 11:32 55.18916 0.69893 37258 ft 499 kts 140°
2026-04-27 11:33 55.13635 0.77796 37261 ft 499 kts 140°
2026-04-27 11:33 55.08398 0.85607 37261 ft 500 kts 140°
2026-04-27 11:34 55.03107 0.93472 37267 ft 499 kts 140°
2026-04-27 11:34 54.97851 1.01254 37269 ft 497 kts 140°
2026-04-27 11:35 54.92622 1.08971 37266 ft 498 kts 140°
2026-04-27 11:35 54.87348 1.16724 37261 ft 497 kts 140°
2026-04-27 11:36 54.82050 1.24489 37263 ft 498 kts 140°
2026-04-27 11:36 54.76781 1.32180 37271 ft 498 kts 140°
2026-04-27 11:37 54.71487 1.39882 37266 ft 498 kts 140°
2026-04-27 11:37 54.66202 1.47544 37276 ft 498 kts 140°
2026-04-27 11:38 54.60877 1.55235 37275 ft 498 kts 140°
2026-04-27 11:38 54.55593 1.62843 37265 ft 498 kts 140°
2026-04-27 11:39 54.50291 1.70448 37271 ft 498 kts 141°
2026-04-27 11:39 54.44961 1.78067 37275 ft 497 kts 141°
2026-04-27 11:40 54.39677 1.85594 37279 ft 498 kts 142°
2026-04-27 11:40 54.34341 1.93168 37278 ft 498 kts 141°
2026-04-27 11:41 54.29036 2.00673 37280 ft 498 kts 142°
2026-04-27 11:41 54.23681 2.08222 37279 ft 499 kts 142°
2026-04-27 11:42 54.18352 2.15708 37291 ft 498 kts 142°
2026-04-27 11:42 54.13025 2.23168 37285 ft 497 kts 142°
2026-04-27 11:43 54.07667 2.30642 37285 ft 497 kts 142°
2026-04-27 11:43 54.02337 2.38053 37297 ft 498 kts 142°
2026-04-27 11:44 53.96999 2.45450 37294 ft 497 kts 142°
2026-04-27 11:44 53.91640 2.52850 37294 ft 495 kts 142°
2026-04-27 11:45 53.87189 2.58979 37291 ft 496 kts 142°
2026-04-27 11:45 53.80967 2.67515 37285 ft 496 kts 143°
2026-04-27 11:46 53.75629 2.74813 37296 ft 494 kts 143°
2026-04-27 11:46 53.70256 2.82133 37300 ft 495 kts 143°
2026-04-27 11:47 53.64934 2.89358 37299 ft 496 kts 143°
2026-04-27 11:47 53.59566 2.96622 37289 ft 495 kts 143°
2026-04-27 11:48 53.54190 3.03874 37312 ft 495 kts 143°
2026-04-27 11:48 53.48818 3.11095 37319 ft 495 kts 143°
2026-04-27 11:49 53.43453 3.18282 37310 ft 495 kts 143°
2026-04-27 11:49 53.38097 3.25434 37317 ft 494 kts 143°
2026-04-27 11:50 53.32738 3.32566 37313 ft 494 kts 144°
2026-04-27 11:50 53.27351 3.39643 37324 ft 494 kts 147°
2026-04-27 11:51 53.21580 3.45705 37081 ft 491 kts 152°
2026-04-27 11:51 53.15749 3.51409 37301 ft 490 kts 153°
2026-04-27 11:52 53.12787 3.54233 37321 ft 491 kts 153°
2026-04-27 11:52 53.06852 3.59824 37316 ft 490 kts 153°
2026-04-27 11:53 53.00945 3.65339 37301 ft 489 kts 154°
2026-04-27 11:53 52.95327 3.71735 37307 ft 492 kts 143°
2026-04-27 11:54 52.90125 3.79012 37270 ft 494 kts 143°
2026-04-27 11:54 52.84883 3.86355 37284 ft 492 kts 143°
2026-04-27 11:55 52.79671 3.93651 37280 ft 492 kts 143°
2026-04-27 11:55 52.74469 4.00915 37282 ft 492 kts 143°
2026-04-27 11:56 52.69250 4.08182 37316 ft 494 kts 143°
2026-04-27 11:56 52.64019 4.15445 37310 ft 492 kts 143°
2026-04-27 11:57 52.58784 4.22688 37278 ft 494 kts 143°
2026-04-27 11:57 52.56139 4.26335 36800 ft 502 kts 143°
2026-04-27 11:57 52.53345 4.29692 36387 ft 497 kts 153°
2026-04-27 11:57 52.50293 4.32296 36099 ft 485 kts 162°
2026-04-27 11:58 52.47144 4.34024 35813 ft 473 kts 171°
2026-04-27 11:58 52.43977 4.34883 35487 ft 463 kts 181°
2026-04-27 11:58 52.40770 4.35102 35143 ft 458 kts 185°
2026-04-27 11:58 52.37588 4.35069 34784 ft 459 kts 185°
2026-04-27 11:59 52.34383 4.35081 34356 ft 462 kts 185°
2026-04-27 11:59 52.31208 4.35107 33923 ft 463 kts 185°
2026-04-27 11:59 52.27958 4.35147 33479 ft 465 kts 184°
2026-04-27 11:59 52.24746 4.35194 33106 ft 465 kts 185°
2026-04-27 12:00 52.21512 4.35244 32735 ft 466 kts 185°
2026-04-27 12:00 52.18237 4.35298 32360 ft 467 kts 185°
2026-04-27 12:00 52.15007 4.35353 31992 ft 469 kts 185°
2026-04-27 12:00 52.11741 4.35410 31620 ft 468 kts 185°
2026-04-27 12:01 52.08487 4.35468 31242 ft 465 kts 185°
2026-04-27 12:01 52.05300 4.35525 30872 ft 460 kts 185°
2026-04-27 12:01 52.02129 4.35581 30474 ft 456 kts 185°
2026-04-27 12:01 51.98951 4.35636 30071 ft 453 kts 185°
2026-04-27 12:02 51.95825 4.35690 29658 ft 451 kts 185°
2026-04-27 12:02 51.92706 4.35744 29254 ft 450 kts 185°
2026-04-27 12:02 51.89543 4.35798 28839 ft 448 kts 185°
2026-04-27 12:02 51.86439 4.35854 28433 ft 446 kts 184°
2026-04-27 12:03 51.83353 4.35908 28032 ft 443 kts 185°
2026-04-27 12:03 51.80288 4.35961 27634 ft 440 kts 184°
2026-04-27 12:03 51.77228 4.36017 27214 ft 437 kts 184°
2026-04-27 12:03 51.74213 4.36067 26814 ft 436 kts 184°
2026-04-27 12:04 51.71196 4.36118 26417 ft 435 kts 184°
2026-04-27 12:04 51.68165 4.36172 26013 ft 433 kts 184°
2026-04-27 12:04 51.65176 4.36224 25608 ft 430 kts 184°
2026-04-27 12:04 51.62183 4.36276 25199 ft 428 kts 184°
2026-04-27 12:05 51.59261 4.36015 24791 ft 421 kts 193°
2026-04-27 12:05 51.56411 4.34955 24408 ft 422 kts 200°
2026-04-27 12:05 51.53547 4.33743 24023 ft 431 kts 198°
2026-04-27 12:05 51.50647 4.32540 23618 ft 430 kts 198°
2026-04-27 12:06 51.47783 4.31357 23223 ft 425 kts 198°
2026-04-27 12:06 51.44909 4.30162 22816 ft 420 kts 198°
2026-04-27 12:06 51.42111 4.28999 22431 ft 417 kts 198°
2026-04-27 12:06 51.39304 4.27832 22038 ft 415 kts 198°
2026-04-27 12:07 51.36519 4.26675 21650 ft 414 kts 198°
2026-04-27 12:07 51.33698 4.25637 21248 ft 416 kts 192°
2026-04-27 12:07 51.30815 4.25355 20870 ft 419 kts 181°
2026-04-27 12:07 51.27924 4.25875 20490 ft 423 kts 171°
2026-04-27 12:08 51.25095 4.27226 20113 ft 425 kts 161°
2026-04-27 12:08 51.22440 4.29340 19737 ft 427 kts 152°
2026-04-27 12:08 51.19963 4.31964 19359 ft 426 kts 148°
2026-04-27 12:08 51.17484 4.34583 18811 ft 424 kts 149°
2026-04-27 12:09 51.15044 4.37124 18259 ft 420 kts 149°
2026-04-27 12:09 51.12602 4.39634 17704 ft 415 kts 149°
2026-04-27 12:09 51.10189 4.42105 17123 ft 412 kts 149°
2026-04-27 12:09 51.07782 4.44559 16501 ft 410 kts 149°
2026-04-27 12:10 51.05408 4.46974 15882 ft 407 kts 149°
2026-04-27 12:10 51.03040 4.49378 15259 ft 404 kts 149°
2026-04-27 12:10 51.00688 4.51762 14641 ft 401 kts 149°
2026-04-27 12:10 50.98318 4.54162 14009 ft 398 kts 149°
2026-04-27 12:11 50.95999 4.56505 13385 ft 395 kts 148°
2026-04-27 12:11 50.93713 4.58813 12767 ft 392 kts 148°
2026-04-27 12:11 50.91428 4.61118 12143 ft 388 kts 148°
2026-04-27 12:11 50.89150 4.63412 11516 ft 385 kts 148°
2026-04-27 12:12 50.86919 4.65656 10896 ft 382 kts 149°
2026-04-27 12:12 50.84706 4.67880 10729 ft 366 kts 149°
2026-04-27 12:12 50.82613 4.69982 10612 ft 351 kts 149°
2026-04-27 12:12 50.80572 4.72030 10487 ft 337 kts 149°
2026-04-27 12:13 50.78633 4.73973 10364 ft 324 kts 149°
2026-04-27 12:13 50.76762 4.75845 10246 ft 313 kts 149°
2026-04-27 12:13 50.75025 4.77797 10183 ft 300 kts 138°
2026-04-27 12:13 50.73551 4.80117 9892 ft 298 kts 136°
2026-04-27 12:14 50.72093 4.82426 9515 ft 298 kts 136°
2026-04-27 12:14 50.70631 4.84753 9161 ft 297 kts 135°
2026-04-27 12:14 50.69167 4.87088 8849 ft 295 kts 135°
2026-04-27 12:14 50.67766 4.89325 8515 ft 293 kts 135°
2026-04-27 12:15 50.66330 4.91618 8204 ft 291 kts 135°
2026-04-27 12:15 50.64907 4.93890 7850 ft 291 kts 135°
2026-04-27 12:15 50.63490 4.96148 7552 ft 288 kts 134°
2026-04-27 12:15 50.62089 4.98381 7245 ft 286 kts 134°
2026-04-27 12:16 50.60700 5.00594 6919 ft 285 kts 134°
2026-04-27 12:16 50.59312 5.02802 6606 ft 282 kts 134°
2026-04-27 12:16 50.57961 5.04949 6339 ft 269 kts 134°
2026-04-27 12:16 50.56678 5.06987 6156 ft 256 kts 134°
2026-04-27 12:17 50.55430 5.08968 5764 ft 253 kts 134°
2026-04-27 12:17 50.54200 5.10900 5364 ft 251 kts 134°
2026-04-27 12:17 50.52975 5.12820 5051 ft 249 kts 134°
2026-04-27 12:17 50.51744 5.14747 4816 ft 247 kts 134°
2026-04-27 12:18 50.50548 5.16658 4590 ft 243 kts 127°
2026-04-27 12:18 50.49845 5.18964 4360 ft 233 kts 96°
2026-04-27 12:18 50.50020 5.21363 4169 ft 217 kts 67°
2026-04-27 12:18 50.50635 5.23486 4017 ft 211 kts 58°
2026-04-27 12:19 50.51596 5.25219 3751 ft 208 kts 44°
2026-04-27 12:19 50.52594 5.26789 3473 ft 201 kts 46°
2026-04-27 12:19 50.53540 5.28294 3230 ft 182 kts 45°
2026-04-27 12:19 50.54367 5.29604 3007 ft 160 kts 45°
2026-04-27 12:20 50.55112 5.30781 2794 ft 147 kts 45°
2026-04-27 12:20 50.55833 5.31921 2590 ft 146 kts 44°
2026-04-27 12:20 50.56554 5.33057 2412 ft 149 kts 45°
2026-04-27 12:20 50.57289 5.34219 2207 ft 149 kts 44°
2026-04-27 12:21 50.58021 5.35376 2000 ft 148 kts 43°
2026-04-27 12:21 50.58748 5.36521 1804 ft 147 kts 44°
2026-04-27 12:21 50.59457 5.37642 1602 ft 143 kts 44°
2026-04-27 12:21 50.60158 5.38750 1402 ft 143 kts 43°
2026-04-27 12:22 50.60860 5.39860 1219 ft 144 kts 43°
2026-04-27 12:22 50.61561 5.40983 1045 ft 143 kts 44°
2026-04-27 12:22 50.62275 5.42112 834 ft 148 kts 41°
2026-04-27 12:22 50.63018 5.43266 653 ft 149 kts 44°
2026-04-27 12:23 50.63695 5.44344 613 ft 119 kts 44°
2026-04-27 12:23 50.64127 5.45022 601 ft 58 kts 44°
2026-04-27 12:23 50.64359 5.45388 600 ft 24 kts 41°
2026-04-27 12:23 50.64517 5.45449 598 ft 24 kts
2026-04-27 12:24 50.64578 5.45318 595 ft 18 kts 234°
2026-04-27 12:24 50.64484 5.45165 595 ft 24 kts 224°
2026-04-27 12:24 50.64339 5.44934 595 ft 33 kts 225°
2026-04-27 12:24 50.64154 5.44639 599 ft 41 kts 224°
2026-04-27 12:25 50.63949 5.44323 606 ft 40 kts 225°
2026-04-27 12:25 50.63759 5.44015 614 ft 37 kts 225°
2026-04-27 12:25 50.63589 5.43744 622 ft 25 kts 225°
2026-04-27 12:25 50.63574 5.43585 624 ft 13 kts 308°
2026-04-27 12:26 50.63634 5.43481 623 ft 14 kts 311°
2026-04-27 12:26 50.63621 5.43363 624 ft 13 kts 227°
2026-04-27 12:26 50.63545 5.43240 628 ft 18 kts 225°
2026-04-27 12:26 50.63468 5.43088 631 ft 17 kts 247°
2026-04-27 12:27 50.63454 5.42955 631 ft 6 kts 312°
2026-04-27 12:27 50.63506 5.42925 629 ft 9 kts 341°
2026-04-27 12:27 50.63530 5.42913 629 ft 0 kts 341°